Regional Weather Roundup
Issued by NWS Kansas City/Pleasant Hill, MO

Home | Current Version | Previous Version | Text Only | Print | Product List | Glossary On
Versions: 1 2 3 4 5 6 7 8 9 10 11 12 13 14 15 16 17 18 19 20 21 22 23 24 25 26 27 28 29 30 31 32 33 34 35 36 37 38 39 40 41 42 43 44 45 46 47 48 49 50
000
ASUS43 KEAX 310004
RWREAX

WEATHER ROUNDUP FOR EASTERN KANSAS AND NORTHWEST MISSOURI
NATIONAL WEATHER SERVICE KANSAS CITY/PLEASANT HILL MO
700 PM CDT MON MAR 30 2015

KSZ040-057-103>105-MOZ028-029-037-043-310100-
...KANSAS CITY METROPOLITAN AREA...

CITY           SKY/WX    TMP DP  RH WIND       PRES   REMARKS
K.C. INTL      PTCLDY    68  31  25 SW12      29.96S
6HR MIN TEMP:  67; 6HR MAX TEMP:  73;

K.C. DOWNTOWN  CLEAR     71  28  20 SW14      29.96S
6HR MIN TEMP:  69; 6HR MAX TEMP:  75; 6HR PCP: TRACE;

LEES SUMMIT    CLEAR     68  30  24 SW15      29.98S
6HR MIN TEMP:  67; 6HR MAX TEMP:  72;

OLATHE - IXD   CLEAR     68  30  24 SW13      29.98S
6HR MIN TEMP:  67; 6HR MAX TEMP:  72; 6HR PCP: TRACE;

OLATHE - OJC   CLEAR     68  31  25 SW7       29.97F
6HR MIN TEMP:  66; 6HR MAX TEMP:  71;

LAWRENCE       CLEAR     71  30  21 S14       29.96S

$$

MOZ001>008-011>017-020>025-030>033-038>040-044>046-053-054-310100-
...NORTHERN AND CENTRAL MISSOURI...

CITY           SKY/WX    TMP DP  RH WIND       PRES   REMARKS
ST. JOSEPH     PTCLDY    71  29  21 SW10      29.93F
6HR MIN TEMP:  69; 6HR MAX TEMP:  75;

MOSBY          PTCLDY    70  28  21 SW13      29.96S
WARRENSBURG    PTCLDY    68  32  26 S7        29.98S
WHITEMAN AFB   PTCLDY    67  33  27 SW13      29.97S
6HR MIN TEMP:  67; 6HR MAX TEMP:  71;

CLINTON        CLEAR     68  34  28 SW8       29.99F
SEDALIA        PTCLDY    69  29  22 SW13      29.98F
6HR MIN TEMP:  68; 6HR MAX TEMP:  72;

WARSAW         NOT AVBL
MARSHALL       PTCLDY    70  37  30 SW12      29.98S
CHILLICOTHE      N/A     69  34  27 SW5       29.96R
6HR MIN TEMP:  68; 6HR MAX TEMP:  72;

MOBERLY        CLEAR     64  32  29 SW7       29.97S
KIRKSVILLE     CLEAR     67  30  25 SW16G23   29.94S
6HR MIN TEMP:  66; 6HR MAX TEMP:  71;


$$

MOZ041-047>049-056>058-063>065-088>090-097-310100-
...EASTERN AND SOUTHERN MISSOURI...

CITY           SKY/WX    TMP DP  RH WIND       PRES   REMARKS
ST. LOUIS INTL PTCLDY    69  26  20 SW6       29.99F
6HR MIN TEMP:  66; 6HR MAX TEMP:  72;

SPIRIT OF STL  PTCLDY    66  28  24 SW6       29.98F
COLUMBIA       PTCLDY    62  30  29 S9        29.98F
JEFFERSON CITY MOCLDY    69  26  20 S7        29.97F
MEXICO         CLEAR     68  39  34 SW8       29.97F
HANNIBAL       CLEAR     68  23  18 SW9       29.95F
ROLLA          PTCLDY    65  29  25 SW9       29.99F
LEBANON        CLEAR     68  25  19 SW8       30.02F
OSAGE BEACH    CLEAR     70  27  19 SW10      30.00S
SPRINGFIELD    CLEAR     67  35  30 SW9       30.01F
BRANSON        CLEAR     72  36  26 CALM      30.04F
NEVADA         CLEAR     66  36  32 SW8       30.01S
JOPLIN         CLEAR     69  34  27 SW12      30.01F
WEST PLAINS    CLEAR     66  31  27 S3        30.05F

$$

IAZ060-094-KSZ022-034>040-054-083-096-NEZ052-066-093-310100-
...KANSAS...SOUTHEAST NEBRASKA AND IOWA...

CITY           SKY/WX    TMP DP  RH WIND       PRES   REMARKS
TOPEKA         CLEAR     74  30  19 SW12G20   29.95S
6HR MIN TEMP:  68; 6HR MAX TEMP:  75;

MANHATTAN      CLEAR     74  39  28 SW15      29.92F
EMPORIA        CLEAR     72  35  25 SW13      29.96F
CHANUTE        CLEAR     69  35  28 S10       30.00S
WICHITA        PTCLDY    74  37  26 S15       29.96F
OMAHA          PTCLDY    75  31  19 W13       29.86S
LINCOLN        MOCLDY    74  27  17 NW7       29.91R
FALLS CITY     PTCLDY    74  31  20 SW9       29.90F
LAMONI         CLEAR     68  31  25 SW15      29.90F
DES MOINES     PTCLDY    72  29  20 W12       29.83F

$$




USA.gov is the U.S. government's official web portal to all federal, state and local government web resources and services.